Погода Баку

Погода Баку : погода сейчас, прогноз погоды и архив. Всё, что Вы хотите узнать о погоде Баку!

Поиск расширенной информации на нашем сайте:

Другие новости

Новости СМИ2

Главная страница сайта

Новости сайта

03.07.2017

Напоминаем, что на нашем специализированном сайте Метеоцентр.Азия вы можете получить высокодетализированные автоматические прогнозы погоды по пунктам России, СНГ и мира в авиационном формате (включающие направление и скорость ветра, видимость, явления погоды, количество и форму облачности, нижнюю и верхнюю границу облачности).

Рекомендуем: Прямо из Китая капсулы kang xin - дешево!

Погода Баку - сегодня

Время (UTC), дата Ветер
(°,м/с) 
Видим.   Явления Облачность Т
(°С)
Тd
(°С)
f(%) Тe
(°С)
Pmin
(гПа)
dP
(гПа)
Po
(мм)
O2
(г/м3)
Тmin Tmax R s Состояние
почвы
03 18.07.17 190 (Ю) 20000 м    ясно 
+25.2 +14.1 50 +32  1015  -0.2  758  277           
06 18.07.17 180 (Ю) 20000 м    ясно 
+32.7 +12.9 30 +38  1013.9  -0.8  757  270           
09 18.07.17 180 (Ю) 20000 м    ясно 
+35.2 +11.4 24 +38  1014.3  0.4  757  268           
12 18.07.17 180 (Ю) 20000 м    ясно 
+34.5 +8 20 +35  1013.1  -1.2  756  269           
15 18.07.17 180 (Ю) 20000 м    ясно 
+32.6 +12.7 30 +37  1013.1  -0.1  756  270           
18 18.07.17 тихо ()   20000 м    ясно 
+26.2 +10.7 38 +28  1013.3  756  276    +35.6       
21 18.07.17 тихо ()   20000 м    ясно 
+24.6 +14.5 53 +32  1013.3  756  277           
00 19.07.17 тихо ()   20000 м    ясно 
+23 +13.7 56 +29  1011.4  -1.9  755  278           
03 19.07.17 тихо ()   20000 м    ясно 
+22.8 +13.5 56 +29  1011.4  755  278           
06 19.07.17 060 (СВ) 20000 м    1/0 
+33.4 +8.2 21 +33  1012.2  756  270           
09 19.07.17 160 (Ю) 20000 м    ясно 
+35.7 +7.3 17 +36  1010.7  -1.4  755  268           
12 19.07.17 140 (ЮВ) 20000 м    ясно 
+33.4 +16.8 37 +45  1009.5  -1.2  754  267           
15 19.07.17 140 (ЮВ) 20000 м    ясно 
+32.2 +12.6 30 +37  1008.9  -0.7  753  269           
18 19.07.17 тихо ()   20000 м    ясно 
+27.4 +16.4 51 +38  1008.9  753  272    +36.6       
21 19.07.17 тихо ()   20000 м    ясно 
+25 +12.5 46 +30  1008.7  -0.4  753  276           
00 20.07.17 тихо ()   20000 м    ясно 
+24.4 +11.5 44 +28  1008.7  753  276           
03 20.07.17 300 (СЗ) 20000 м    6/0 600 м средняя, верхняя 
[Ac cast|Cc]
+24.8 +17.6 64 +38  1010.9  2.3  754  275           
06 20.07.17 350 (С) 20000 м    8/5 600 м кучево-дожд., средняя 
[Cb cap|Ac trans]
+29.6 +19.2 54 +46  1010.3  -0.6  754  270           
09 20.07.17 080 (В) 20000 м    8/5 600 м кучево-дожд., средняя 
[Cb cap|Ac trans]
+35.1 +14.7 30 +43  1008.9  -1.1  753  266           
12 20.07.17 080 (В) 20000 м    ясно 
+36.6 +14 26 +44  1007.8  -1.1  752  265           
15 20.07.17 150 (ЮВ) 20000 м    ясно 
+33.8 +10.2 24 +35  1007.1  -0.8  752  268           
18 20.07.17 тихо ()   20000 м    4/0 средняя 
[Ac trans]
+28 +14.9 45 +36  1008  0.7  752  272    +37.6       
21 20.07.17 тихо ()   20000 м    4/0 средняя 
[Ac trans]
+26.3 +15.1 50 +35  1008.6  0.6  753  274           
00 21.07.17 350 (С) 20000 м    ясно 
+24.3 +17 64 +37  1009.2  0.6  753  275           
03 21.07.17 320 (СЗ) 20000 м    4/0 средняя 
[Ac trans]
+23.7 +18.8 74 +40  1010.1  0.8  754  275           
Время (UTC), дата Ветер
(°,м/с) 
Видим.   Явления Облачность Т
(°С)
Тd
(°С)
f(%) Тe
(°С)
Pmin
(гПа)
dP
(гПа)
Po
(мм)
O2
(г/м3)
Тmin Tmax R s Состояние
почвы

Для получения пояснительной информации подведите курсор к названию столбца.

ПОГОДА Баку - архив

Всё, что Вы хотите узнать о погоде Баку - удобно и подробно!

Выберите нужную дату (начиная с 1 января 2015* года) и нажмите кнопку "Найти".
Будут отображены архивные сводки погоды по пункту Баку, начиная с указанной даты.


Отображать данные в формате CSV (для использования в таблицах Excel)


Внимание! Наш архив погоды предназначен исключительно для личного некоммерческого использования в познавательных целях. Если Вам необходимы официальные справки о состоянии погоды (для производственных, юридических, коммерческих и т.п. целей), обращайтесь в органы Росгидромета.

*Примечание: данная дата относится к архиву по метеостанциям СССР (Россия, СНГ, Балтия).
Архив по метеостанциям Зарубежной Европы и Азии (кроме Китая) хранится 10 дней, по другим регионам земного шара (Китай, Африка, Америка, Австралия, Океания) - 1 день.

Баку - район местоположения метеостанции


Название, широта, долгота, высота метеостанции:
Баку (Дендропарк) 40.4°ш. 49.8°д. 61 м над ур. моря [Азербайджан]

Дополнительная информация

В oтличие oт бoльшинства пoгoдных сайтoв мы публикуем пoдрoбную метеoинфoрмацию в детальнoм прoфессиoнальнoм фoрмате.

Характеристики температуры и влажнoсти вoздуха измеряются на высoте 2 м в тени вдали oт зданий и деревьев.
Скoрoсть ветра измеряется на высoте 10 м (на урoвне рoста челoвека скoрoсть ветра ниже в 1.5-2 раза). Если метеoстанция нахoдится в гoрoде или в лесу, тo скoрoсть ветра занижена на 2-4 м/с пo сравнению с oткрытым местoм. Скoрoсть ветра над акватoриями крупных рек и oзёр, а также на вершинах хoлмoв на 2-5 м/с выше, чем в oбычных услoвиях.
Атмoсфернoе давление в разных тoчках местнoсти мoжет значительнo oтличаться oт давления на метеoстанции, в зависимoсти oт услoвий рельефа (при пoдъёме на 10 м давление пoнижается примернo на 1 мм рт.ст.).